EHI
0 0 0 0 0 0 0 0 0 0 0 1 1 1 1 5 8 9 11 12 12 14 15 14 14 17 21 20 16 14 11 7 6 8 10 11 10 9 6 6 7 8 7 6
0 0 0 0 0 0 0 0 0 0 0 0 0 0 2 6 9 9 11 13 13 14 15 15 15 18 21 20 16 12 9 5 3 6 9 10 10 8 7 7 8 7 5 4
0 0 0 0 0 0 0 0 0 0 0 0 0 0 2 5 8 9 11 14 16 17 17 17 17 19 19 17 13 9 6 4 3 4 6 8 8 8 8 10 10 7 5 3
0 0 0 0 0 0 0 0 0 0 0 0 0 0 2 4 7 9 12 15 18 19 21 23 21 19 17 13 9 8 6 4 4 5 4 6 8 9 10 12 11 7 5 3
0 0 0 0 0 0 0 0 0 0 0 0 0 0 1 3 5 8 12 15 18 21 25 26 23 19 14 9 7 7 6 4 5 6 6 6 7 8 10 11 9 6 4 2
0 0 0 0 0 0 0 0 0 0 0 0 0 0 1 2 2 5 10 16 20 23 25 25 21 17 12 9 8 8 7 6 6 7 7 7 7 8 8 7 6 4 3 2
0 0 0 0 0 0 0 0 0 0 0 0 0 0 0 1 2 4 8 15 22 26 26 23 19 15 11 9 10 11 10 8 7 8 7 6 7 9 8 6 4 3 3 4
0 0 0 0 0 0 0 0 0 0 0 0 0 0 0 1 2 5 8 13 22 29 27 21 16 13 10 10 11 11 9 8 7 7 6 5 7 9 9 7 5 5 4 4
0 0 0 0 0 0 0 0 0 0 0 0 0 0 0 1 3 5 8 12 20 27 25 18 12 9 8 8 8 7 7 7 6 6 5 5 7 8 8 7 7 6 4 3
0 0 0 0 0 0 0 0 0 0 0 0 0 0 0 1 2 4 7 10 15 21 20 15 9 7 6 6 6 5 6 6 6 6 6 6 7 7 7 7 6 5 3 1
0 0 0 0 0 0 0 0 0 0 0 0 0 0 0 0 1 4 7 8 11 15 14 11 8 5 4 5 5 5 6 6 6 5 5 6 6 6 6 6 5 4 3 1
0 0 0 0 0 0 0 0 0 0 0 0 0 0 0 0 2 6 9 9 9 10 9 6 5 4 3 4 4 4 4 5 5 4 4 4 4 4 5 5 4 3 2 1
0 0 0 0 0 0 0 0 0 0 0 0 0 0 0 0 3 7 10 9 8 9 7 4 3 3 3 3 3 3 3 4 4 3 3 2 2 3 3 3 3 2 2 1
0 0 0 0 0 0 0 0 0 0 0 0 0 0 0 0 3 6 9 7 6 7 7 6 4 3 3 3 2 2 2 2 2 2 1 1 1 1 1 2 1 1 1 0
0 0 0 0 0 0 0 0 0 0 0 0 0 0 0 1 3 7 8 7 5 5 6 6 4 3 2 1 1 1 1 1 1 1 0 0 0 0 0 0 0 0 0 0
0 0 0 0 0 0 0 0 0 0 0 0 0 0 0 2 5 8 9 7 5 6 6 5 3 1 1 0 0 0 0 0 0 0 0 0 0 0 0 0 0 0 0 0
0 0 0 0 0 0 0 0 0 0 0 0 0 0 0 2 6 8 8 5 4 5 4 3 2 1 1 0 0 0 0 0 0 0 0 0 0 0 0 0 0 0 0 0
0 0 0 0 0 0 0 0 0 0 0 0 0 0 0 2 4 5 4 3 1 2 3 3 2 2 2 1 0 0 0 0 0 0 0 0 0 0 0 0 0 0 0 0
0 0 0 0 0 0 0 0 0 0 0 0 0 0 0 1 2 2 2 1 0 1 2 3 3 3 3 2 0 0 0 0 0 0 0 0 0 0 0 0 0 0 0 0
0 0 0 0 0 0 0 0 0 0 0 0 0 0 1 1 1 1 2 1 0 1 2 3 3 3 3 1 0 0 0 0 0 0 0 0 0 0 0 0 0 0 0 0
0 0 0 0 0 0 0 0 0 0 0 0 0 1 2 2 2 3 2 1 1 1 2 3 3 3 2 1 0 0 0 0 0 0 0 0 0 0 0 0 0 0 0 0
0 0 0 0 0 0 0 0 0 0 1 1 1 1 3 4 4 4 3 1 0 0 1 1 2 2 1 0 0 0 0 0 0 0 0 0 0 0 0 0 0 0 0 0
0 0 0 0 0 0 0 0 0 0 1 2 1 1 3 4 2 2 2 1 0 0 0 0 1 1 0 0 0 0 0 0 0 0 0 0 0 0 0 0 0 0 0 0
0 0 0 0 0 0 0 0 0 0 1 1 1 2 3 2 0 1 2 1 0 0 0 0 0 0 0 0 0 0 0 0 0 0 0 0 0 0 0 0 0 0 0 0
0 0 0 0 0 0 0 0 0 0 0 0 1 2 3 1 0 1 1 1 1 0 0 0 0 0 0 0 0 0 0 0 0 0 0 0 0 0 0 0 0 0 0 0
0 0 0 0 0 0 0 0 0 0 0 0 1 2 2 1 0 0 1 2 2 1 0 0 0 0 0 0 0 0 0 0 0 0 0 0 0 0 0 0 0 0 0 0
Wind_Speed
6 7 6 6 3 0 4 5 6 5 5 7 7 7 8 10 10 10 10 9 9 8 7 7 7 6 5 5 5 4 4 4 3 2 2 2 2 2 1 2 2 1 2 2
8 6 2 3 3 4 6 6 6 6 5 5 6 7 7 10 11 10 10 9 9 9 8 7 7 7 6 5 5 4 4 3 2 2 1 1 1 1 1 1 2 2 2 2
4 5 4 6 7 7 6 5 4 5 6 6 6 8 10 10 10 10 9 9 9 9 10 9 8 7 6 6 5 4 4 4 3 3 2 2 2 2 1 1 1 2 2 2
2 3 5 6 6 7 5 2 4 6 8 6 8 8 8 10 11 11 11 10 10 9 9 9 8 7 6 5 4 4 4 3 3 2 2 2 1 1 1 1 2 2 2 2
3 3 6 6 4 6 0 2 5 6 7 6 8 10 4 8 9 10 11 11 11 10 10 10 8 8 6 5 4 4 4 4 3 2 2 2 1 1 1 1 2 1 2 2
2 2 3 2 2 3 5 6 5 7 9 10 7 9 5 4 6 6 7 10 10 10 10 9 8 7 6 5 5 5 5 4 3 3 2 2 2 1 1 1 1 0 0 1
6 6 4 4 5 7 8 7 6 8 8 6 3 7 3 2 0 2 4 7 9 9 9 9 9 8 7 6 5 5 5 4 4 3 3 2 2 2 2 1 1 1 1 2
4 5 5 5 6 5 8 9 8 7 7 4 5 6 2 4 2 1 2 5 8 9 8 8 8 8 8 7 6 5 5 4 4 3 3 2 1 1 0 0 1 1 1 2
4 1 4 3 4 6 7 8 7 10 10 9 5 2 3 4 3 3 4 6 7 8 8 8 7 7 7 7 6 5 5 4 3 3 3 2 2 0 0 0 1 1 2 2
4 5 3 4 5 4 6 5 5 9 8 9 7 6 2 3 3 4 5 5 6 8 8 8 7 7 6 5 5 4 4 4 3 3 3 2 2 1 1 1 2 2 2 3
5 6 4 6 6 6 6 6 7 8 8 10 10 3 5 2 2 4 5 6 7 8 8 7 6 7 6 5 5 4 4 4 3 2 2 2 2 2 2 1 1 2 2 2
3 6 7 5 1 4 7 8 8 9 9 9 10 3 5 3 3 4 5 7 7 8 8 7 7 7 6 5 4 4 3 3 3 2 2 2 2 3 2 2 2 2 2 2
2 5 7 6 6 6 6 6 8 9 9 9 10 2 6 3 3 4 6 7 8 8 8 8 7 6 6 5 4 4 3 2 2 2 3 3 3 2 2 2 1 2 2 2
4 6 9 9 6 4 6 6 8 10 10 10 9 6 2 3 4 5 6 7 8 8 8 7 7 6 6 5 4 4 3 3 3 3 3 3 3 2 2 2 1 1 1 2
5 7 8 8 7 7 9 9 8 9 10 11 9 7 4 2 3 5 7 8 8 8 8 8 7 7 6 6 5 4 4 3 3 3 3 3 3 2 2 2 2 2 1 2
4 7 8 9 7 8 9 9 9 9 9 9 9 6 2 3 4 6 7 8 9 9 8 8 7 8 7 6 6 4 4 3 3 3 3 3 3 2 2 2 1 1 2 2
5 6 8 9 7 9 9 7 7 7 7 8 8 4 4 5 5 6 7 8 8 8 8 8 8 7 7 6 6 5 4 4 3 3 3 3 3 2 2 1 1 1 1 2
7 8 7 8 8 10 3 2 5 6 6 5 4 1 3 4 4 5 6 8 8 8 8 8 8 7 7 6 6 5 4 4 3 3 3 3 3 2 2 1 1 1 1 1
8 8 7 7 9 7 4 4 4 6 6 3 3 3 4 5 5 6 7 7 7 8 8 8 7 7 7 7 6 5 5 4 4 3 3 3 3 2 1 1 1 1 1 2
7 9 8 8 9 7 2 1 2 6 6 3 4 5 6 7 5 5 9 8 8 8 8 8 8 7 7 7 6 6 5 4 4 3 3 2 2 2 1 0 0 1 1 2
8 8 10 10 9 5 1 2 4 6 1 4 4 6 7 5 1 7 10 9 8 8 8 8 8 7 7 7 6 6 5 4 3 3 3 2 1 2 1 1 1 1 1 2
8 8 8 8 8 4 3 5 3 2 3 3 3 5 6 5 6 8 9 9 9 9 9 8 8 7 7 7 7 6 4 4 3 4 3 2 2 1 1 1 1 1 1 2
8 6 5 4 2 1 2 2 1 1 2 2 3 5 7 7 7 9 9 9 9 9 9 8 8 8 7 7 6 5 5 4 4 4 3 3 2 2 1 2 2 2 2 2
5 4 5 5 4 3 3 3 3 2 2 2 3 5 7 8 9 10 9 9 9 9 9 8 8 8 7 7 6 5 5 5 4 4 3 3 3 3 2 2 2 2 2 2
5 4 6 6 5 4 5 4 4 3 4 4 4 5 7 8 9 10 9 9 9 8 8 8 8 8 8 7 6 5 5 5 4 4 3 3 3 2 2 2 2 3 2 3
8 8 8 6 5 5 5 5 5 5 5 6 6 6 6 7 9 9 9 8 9 9 8 8 8 8 8 7 7 6 6 5 5 4 4 3 3 2 3 2 3 3 4 3
Wind_Direction
193 211 192 178 221 121 173 179 168 141 151 200 200 186 179 185 197 199 196 190 185 182 164 155 151 148 146 143 145 148 144 148 165 155 156 152 148 140 114 88 62 37 14 11
195 192 157 168 189 201 196 191 167 147 155 215 197 202 193 195 205 208 202 194 189 181 168 164 162 157 152 147 147 148 152 155 172 151 158 147 133 135 93 72 69 39 28 5
214 98 140 187 187 203 206 218 189 166 162 198 212 212 204 201 208 210 210 202 195 188 180 175 173 168 160 156 156 154 151 154 157 159 162 156 160 173 160 138 89 48 32 24
197 144 188 203 196 220 205 203 215 197 213 205 217 253 201 197 202 208 211 209 203 192 186 183 177 169 162 156 153 150 146 143 141 161 164 170 187 166 82 33 55 49 40 19
164 179 206 213 202 227 220 175 216 223 244 252 221 259 225 184 214 214 210 210 206 194 188 187 178 169 161 154 154 147 142 140 140 146 158 182 175 132 111 92 86 28 59 25
217 198 250 248 181 196 162 184 200 224 238 245 232 253 256 195 232 223 203 203 201 193 187 181 168 160 158 160 157 151 149 142 148 161 165 166 151 153 141 129 114 269 72 43
194 187 180 195 187 177 210 227 231 228 230 249 165 248 286 78 66 238 205 195 187 180 176 173 169 167 164 165 162 162 159 154 154 158 167 170 168 182 186 215 165 302 2 28
232 192 175 201 237 228 220 246 268 281 284 287 195 249 55 82 81 172 174 165 162 164 168 171 172 171 167 167 166 168 167 163 157 151 152 151 176 210 117 4 313 343 356 15
266 234 139 194 244 260 233 244 290 283 278 276 263 238 168 153 159 149 141 148 157 159 158 160 161 162 163 165 164 166 162 153 151 147 153 155 160 157 54 211 271 26 22 12
275 270 204 177 204 208 283 282 255 265 278 280 274 262 273 157 167 159 157 158 155 151 148 147 150 151 153 154 153 154 151 141 146 157 171 154 144 133 108 47 46 35 22 18
261 262 233 214 238 249 217 230 257 272 285 287 290 317 46 64 149 169 161 157 156 148 146 145 147 146 143 142 144 150 153 153 154 158 152 138 133 115 103 87 66 53 34 19
246 272 271 256 248 293 267 264 257 266 269 269 285 322 81 82 124 154 153 150 148 146 146 145 144 140 140 144 145 146 152 153 148 134 131 126 119 114 112 92 66 52 36 16
211 248 259 230 195 198 236 248 259 267 273 272 278 291 110 121 132 144 149 149 149 148 148 148 146 144 147 148 147 145 151 147 139 131 145 136 128 117 106 90 60 42 35 20
260 257 270 284 304 292 256 254 254 258 266 274 278 287 219 186 166 152 149 154 153 151 153 155 153 151 152 152 152 153 151 146 148 147 143 132 125 113 107 94 65 41 31 20
255 258 260 272 281 275 271 270 261 260 277 285 294 297 292 230 173 156 156 159 158 160 161 161 159 155 153 153 156 160 153 145 147 146 131 124 121 116 109 88 71 57 37 21
248 265 262 259 255 256 261 266 265 265 271 274 275 278 323 121 146 154 160 165 169 169 167 164 162 158 160 161 163 162 161 156 155 152 138 122 115 115 108 98 74 55 35 18
233 246 258 260 259 258 251 260 267 266 271 276 279 279 161 164 168 168 168 172 172 169 168 169 167 165 166 167 167 166 164 158 157 155 147 138 132 121 104 92 63 40 30 13
239 247 256 263 258 257 281 294 271 266 270 274 273 220 178 166 154 161 169 172 169 170 170 169 170 168 169 169 167 164 160 160 163 155 151 149 150 138 123 93 54 18 357 348
226 237 251 256 255 260 245 237 244 260 263 259 235 177 152 136 156 165 166 172 171 170 168 167 168 166 166 167 167 165 165 167 166 159 157 159 159 148 150 129 50 349 326 315
204 226 244 250 262 268 275 164 226 257 247 186 189 176 165 177 211 147 153 164 162 160 161 162 163 163 162 164 166 167 168 170 170 162 168 167 166 165 163 140 318 314 307 303
200 213 234 248 255 258 329 136 204 248 20 131 175 176 180 195 26 111 145 154 155 156 157 161 162 160 158 161 164 169 171 171 166 161 162 153 159 174 177 183 231 274 290 324
237 231 230 242 249 241 144 183 230 6 71 140 171 176 172 142 123 136 147 151 154 155 156 160 159 154 155 161 166 170 171 168 166 167 168 164 172 202 166 185 217 248 270 264
249 263 265 260 280 44 169 190 129 117 147 159 167 164 159 152 148 147 149 153 156 157 156 160 159 154 157 164 172 174 167 169 171 170 171 174 185 201 212 221 219 233 248 275
226 250 247 238 228 216 200 202 197 189 166 158 154 160 162 159 154 152 151 154 158 157 157 161 162 159 160 165 172 177 170 171 175 175 179 187 198 204 209 240 245 257 277 296
263 233 234 232 223 212 206 188 175 155 147 141 139 156 163 159 158 155 155 157 158 158 159 163 166 163 163 165 167 173 172 174 180 185 190 200 207 212 225 232 272 286 306 326
234 238 245 248 216 222 201 183 173 166 160 153 149 147 155 159 158 157 156 156 158 159 160 163 165 165 166 168 169 173 176 179 182 190 200 208 213 215 231 230 221 213 242 234